TimeEDT,TemperatureF,Dew PointF,Humidity,Sea Level PressureIn,VisibilityMPH,Wind Direction,Wind SpeedMPH,Gust SpeedMPH,PrecipitationIn,Events,Conditions,WindDirDegrees,DateUTC
12:53 AM,66.9,64.9,93,29.95,7.0,South,3.5,-,N/A,,Clear,190,2013-07-06 04:53:00
1:53 AM,66.9,64.9,93,29.96,8.0,Calm,Calm,-,N/A,,Scattered Clouds,0,2013-07-06 05:53:00
2:53 AM,72.0,66.0,81,29.94,9.0,WSW,3.5,-,N/A,,Partly Cloudy,250,2013-07-06 06:53:00
3:53 AM,72.0,66.0,81,29.95,9.0,SW,5.8,-,N/A,,Overcast,230,2013-07-06 07:53:00
4:53 AM,69.1,66.0,90,29.95,7.0,Calm,Calm,-,N/A,,Clear,0,2013-07-06 08:53:00
5:53 AM,71.1,66.9,87,29.94,7.0,Calm,Calm,-,N/A,,Partly Cloudy,0,2013-07-06 09:53:00
6:53 AM,75.0,68.0,79,29.94,8.0,SW,4.6,-,N/A,,Clear,220,2013-07-06 10:53:00
7:53 AM,77.0,69.1,76,29.94,8.0,WSW,6.9,-,N/A,,Clear,250,2013-07-06 11:53:00
8:53 AM,77.0,69.1,76,29.93,8.0,WSW,6.9,-,N/A,,Overcast,240,2013-07-06 12:53:00
9:53 AM,80.1,68.0,67,29.92,8.0,WSW,9.2,-,N/A,,Clear,250,2013-07-06 13:53:00
10:53 AM,82.0,68.0,62,29.91,9.0,West,10.4,-,N/A,,Partly Cloudy,270,2013-07-06 14:53:00
11:53 AM,82.9,66.0,56,29.90,9.0,West,12.7,20.7,N/A,,Scattered Clouds,260,2013-07-06 15:53:00
12:53 PM,82.9,64.9,54,29.88,10.0,West,8.1,-,N/A,,Scattered Clouds,270,2013-07-06 16:53:00
1:53 PM,84.0,64.0,51,29.87,10.0,West,11.5,18.4,N/A,,Clear,270,2013-07-06 17:53:00
2:53 PM,84.0,64.0,51,29.86,10.0,West,8.1,-,N/A,,Scattered Clouds,260,2013-07-06 18:53:00
3:53 PM,84.0,63.0,49,29.85,10.0,WSW,11.5,18.4,N/A,,Clear,250,2013-07-06 19:53:00
4:53 PM,82.9,63.0,51,29.84,10.0,WSW,11.5,-,N/A,,Clear,250,2013-07-06 20:53:00
5:53 PM,82.9,63.0,51,29.82,10.0,WSW,6.9,-,N/A,,Clear,250,2013-07-06 21:53:00
6:53 PM,81.0,64.0,56,29.82,10.0,WSW,5.8,-,N/A,,Clear,240,2013-07-06 22:53:00
7:53 PM,77.0,64.9,66,29.82,10.0,SSW,3.5,-,N/A,,Clear,210,2013-07-06 23:53:00
8:53 PM,69.1,64.0,84,29.84,10.0,SSW,3.5,-,N/A,,Clear,200,2013-07-07 00:53:00
9:53 PM,73.9,62.1,66,29.85,10.0,SW,4.6,-,N/A,,Clear,220,2013-07-07 01:53:00
10:53 PM,68.0,62.1,81,29.86,10.0,SSW,3.5,-,N/A,,Clear,200,2013-07-07 02:53:00
11:53 PM,72.0,62.1,71,29.85,10.0,SW,6.9,-,N/A,,Clear,220,2013-07-07 03:53:00